N8QF-1 Weather Reports


Display with metric or nautical units.
time (UTC)temp
F
wind
direction
speed
MPH
gust
MPH
rain 1hr
in
rain 24hr
in
rain mn
in
humidity
%
barometer
mb
20260505101456 58 203 2.0 7.0 0.02 0.00 0.05 89 1008.7
20260505100954 58 224 2.0 9.0 0.02 0.00 0.05 88 1008.8
20260505100454 58 270 5.0 9.0 0.02 0.00 0.04 89 1008.9
20260505095953 58 274 6.0 9.0 0.02 0.00 0.03 87 1009.0
20260505095453 59 267 5.0 9.0 0.00 0.00 0.02 87 1008.9
20260505094952 59 277 2.0 11.0 0.00 0.00 0.02 86 1008.9
20260505093950 59 252 8.0 8.0 0.00 0.00 0.01 84 1009.0
20260505093450 60 315 5.0 7.0 0.00 0.00 0.01 83 1008.9
20260505092949 60 280 3.0 9.0 0.00 0.00 0.01 82 1009.0
20260505092449 60 284 5.0 10.0 0.00 0.00 0.00 81 1008.9
20260505091948 61 295 5.0 10.0 0.00 0.00 0.00 80 1008.9
20260505091448 62 323 4.0 8.0 0.00 0.00 0.00 77 1008.7
20260505090947 62 295 5.0 7.0 0.00 0.00 0.00 74 1008.3
20260505090447 63 3 4.0 9.0 0.00 0.00 0.00 71 1007.9
20260505085946 63 264 7.0 9.0 0.00 0.00 0.00 70 1008.4
20260505085445 63 308 3.0 9.0 0.00 0.00 0.00 70 1008.0
20260505084945 63 300 5.0 8.0 0.00 0.00 0.00 69 1008.3
20260505084444 63 277 4.0 6.0 0.00 0.00 0.00 68 1007.9
20260505083441 64 305 1.0 5.0 0.00 0.00 0.00 67 1007.5
20260505082941 64 319 3.0 7.0 0.00 0.00 0.00 67 1007.5
20260505082440 64 294 4.0 8.0 0.00 0.00 0.00 64 1007.4
20260505081940 64 277 2.0 8.0 0.00 0.00 0.00 64 1007.3
20260505081439 65 347 2.0 8.0 0.00 0.00 0.00 62 1007.1
20260505080939 65 350 4.0 12.0 0.00 0.00 0.00 60 1007.2
20260505075937 67 293 6.0 12.0 0.00 0.00 0.00 54 1007.3
20260505075436 67 276 7.0 13.0 0.00 0.00 0.00 53 1007.4
20260505074435 68 238 5.0 15.0 0.00 0.00 0.00 51 1006.9
20260505073434 68 231 8.0 11.0 0.00 0.00 0.00 51 1006.8
20260505072934 68 233 7.0 11.0 0.00 0.00 0.00 51 1006.7
20260505072433 68 233 7.0 14.0 0.00 0.00 0.00 51 1006.7
20260505071432 68 236 10.0 14.0 0.00 0.00 0.00 50 1006.7
20260505070931 68 256 6.0 12.0 0.00 0.00 0.00 49 1006.6
20260505070431 69 233 5.0 16.0 0.00 0.00 0.00 49 1006.7
20260505065430 69 264 6.0 13.0 0.00 0.00 0.00 49 1006.7
20260505064929 69 242 5.0 13.0 0.00 0.00 0.00 48 1006.7
20260505064429 69 210 7.0 14.0 0.00 0.00 0.00 48 1006.6
20260505063928 70 214 5.0 19.0 0.00 0.00 0.00 47 1006.4
20260505062427 70 221 11.0 17.0 0.00 0.00 0.00 46 1006.3
20260505061926 70 229 11.0 21.0 0.00 0.00 0.00 46 1006.3
20260505060925 70 190 11.0 19.0 0.00 0.00 0.00 46 1006.3
20260505060424 70 198 11.0 21.0 0.00 0.00 0.00 45 1006.2
20260505055423 70 238 7.0 17.0 0.00 0.00 0.00 45 1005.9
20260505054422 71 183 9.0 18.0 0.00 0.00 0.00 45 1005.8
20260505053921 71 218 5.0 19.0 0.00 0.00 0.00 45 1005.7
20260505053420 71 184 10.0 18.0 0.00 0.00 0.00 45 1005.7
20260505052920 70 221 9.0 22.0 0.00 0.00 0.00 45 1005.6
20260505052419 70 222 10.0 17.0 0.00 0.00 0.00 45 1005.5
20260505051919 70 172 7.0 22.0 0.00 0.00 0.00 45 1005.4
20260505051418 71 214 7.0 29.0 0.00 0.00 0.00 45 1005.4
20260505050918 71 212 10.0 21.0 0.00 0.00 0.00 45 1005.5
20260505050417 70 205 11.0 14.0 0.00 0.00 0.00 46 1005.6
20260505041411 70 180 9.0 16.0 0.00 0.00 0.00 50 1006.1
20260505040911 70 197 9.0 13.0 0.00 0.00 0.00 50 1006.0
20260505040410 70 198 8.0 11.0 0.00 0.00 0.00 50 1006.1
20260505035909 69 187 6.0 11.0 0.00 0.00 0.00 50 1006.1
20260505035409 69 165 6.0 14.0 0.00 0.00 0.00 50 1006.2
20260505034908 69 174 6.0 13.0 0.00 0.00 0.00 51 1006.2
20260505034408 69 208 5.0 11.0 0.00 0.00 0.00 51 1006.2
20260505033907 69 205 7.0 13.0 0.00 0.00 0.00 51 1006.2
20260505031404 70 204 7.0 12.0 0.00 0.00 0.00 51 1006.2
20260505030903 70 194 6.0 8.0 0.00 0.00 0.00 51 1006.2
20260505030403 70 188 5.0 11.0 0.00 0.00 0.00 51 1006.3
20260505025902 70 181 5.0 10.0 0.00 0.00 0.00 51 1006.1
20260505025402 70 179 5.0 10.0 0.00 0.00 0.00 51 1006.1
20260505024901 70 173 5.0 12.0 0.00 0.00 0.00 51 1006.2
20260505024401 70 174 5.0 9.0 0.00 0.00 0.00 51 1006.0
20260505023900 70 197 4.0 9.0 0.00 0.00 0.00 51 1005.9
20260505023359 70 190 6.0 12.0 0.00 0.00 0.00 50 1005.9
20260505022858 70 188 6.0 10.0 0.00 0.00 0.00 50 1005.9
20260505022358 71 257 6.0 10.0 0.00 0.00 0.00 49 1005.8
20260505021857 71 188 5.0 12.0 0.00 0.00 0.00 49 1005.7
20260505021356 71 183 6.0 12.0 0.00 0.00 0.00 48 1005.5
20260505020856 71 184 7.0 11.0 0.00 0.00 0.00 48 1005.5
20260505020355 71 165 7.0 10.0 0.00 0.00 0.00 48 1005.4
20260505015855 71 194 6.0 11.0 0.00 0.00 0.00 48 1005.4
20260505015355 71 203 5.0 11.0 0.00 0.00 0.00 48 1005.3
20260505014854 71 181 5.0 9.0 0.00 0.00 0.00 48 1005.2
20260505014353 71 180 5.0 11.0 0.00 0.00 0.00 48 1005.3
20260505013351 71 214 4.0 8.0 0.00 0.00 0.00 48 1005.2
20260505012851 71 204 6.0 9.0 0.00 0.00 0.00 47 1005.1
20260505012350 71 204 5.0 9.0 0.00 0.00 0.00 47 1005.2
20260505011850 72 195 4.0 8.0 0.00 0.00 0.00 46 1005.1
20260505011349 72 195 4.0 10.0 0.00 0.00 0.00 46 1005.1
20260505010348 72 197 8.0 11.0 0.00 0.00 0.00 45 1005.0
20260505005848 72 201 6.0 10.0 0.00 0.00 0.00 45 1004.9
20260505005346 72 193 6.0 10.0 0.00 0.00 0.00 44 1005.0
20260505004846 73 205 6.0 10.0 0.00 0.00 0.00 44 1004.9
20260505004345 73 210 7.0 10.0 0.00 0.00 0.00 44 1004.9
20260505003845 73 204 5.0 14.0 0.00 0.00 0.00 43 1004.9
20260505003344 73 203 8.0 17.0 0.00 0.00 0.00 42 1005.0
20260505002844 74 187 8.0 14.0 0.00 0.00 0.00 42 1005.0
20260505002343 74 236 8.0 14.0 0.00 0.00 0.00 41 1005.0
20260505001842 74 204 9.0 15.0 0.00 0.00 0.00 41 1005.0
20260505001342 74 167 10.0 17.0 0.00 0.00 0.00 40 1005.1
20260505000841 74 229 11.0 18.0 0.00 0.00 0.00 40 1005.1
20260505000343 74 229 11.0 19.0 0.00 0.00 0.00 39 1005.2
20260504235840 75 203 10.0 17.0 0.00 0.00 0.00 39 1005.2
20260504235340 75 169 9.0 16.0 0.00 0.00 0.00 39 1005.2
20260504234839 75 218 10.0 21.0 0.00 0.00 0.00 39 1005.3
20260504233838 75 183 10.0 22.0 0.00 0.00 0.00 39 1005.4
20260504233338 75 221 14.0 16.0 0.00 0.00 0.00 39 1005.4
20260504232837 76 203 10.0 16.0 0.00 0.00 0.00 40 1005.4
20260504232336 75 226 10.0 12.0 0.00 0.00 0.00 41 1005.4
20260504231835 75 219 7.0 15.0 0.00 0.00 0.00 43 1005.4
20260504231333 75 238 9.0 11.0 0.00 0.00 0.00 43 1005.4
20260504230332 75 191 7.0 9.0 0.00 0.00 0.00 43 1005.5
20260504224826 74 173 5.0 11.0 0.00 0.00 0.00 42 1005.7
20260504224325 74 156 5.0 9.0 0.00 0.00 0.00 42 1005.8
20260504223825 75 203 3.0 8.0 0.00 0.00 0.00 42 1005.9
20260504223324 74 212 4.0 9.0 0.00 0.00 0.00 42 1006.0
20260504222822 74 235 6.0 8.0 0.00 0.00 0.00 42 1006.2
20260504222322 74 226 6.0 14.0 0.00 0.00 0.00 43 1006.2
20260504221822 75 190 10.0 14.0 0.00 0.00 0.00 42 100.6
20260504221320 74 158 9.0 10.0 0.00 0.00 0.00 42 1006.0
20260504220820 75 184 5.0 11.0 0.00 0.00 0.00 42 1006.0
20260504220319 75 210 4.0 9.0 0.00 0.00 0.00 43 1006.1
20260504215819 74 222 5.0 10.0 0.00 0.00 0.00 43 1006.1
20260504215318 74 211 4.0 9.0 0.00 0.00 0.00 43 1006.0
20260504214818 74 208 6.0 9.0 0.00 0.00 0.00 44 1006.1
20260504214317 73 204 5.0 13.0 0.00 0.00 0.00 44 1006.2
20260504213817 73 255 8.0 16.0 0.00 0.00 0.00 43 1006.6
20260504213314 73 210 8.0 16.0 0.00 0.00 0.00 44 1006.6
20260504212814 73 236 8.0 14.0 0.00 0.00 0.00 44 1006.7
20260504212313 73 217 10.0 17.0 0.00 0.00 0.00 44 1006.8
20260504211312 74 255 10.0 20.0 0.00 0.00 0.00 43 1006.7
20260504210812 73 221 10.0 19.0 0.00 0.00 0.00 43 1006.9
20260504210311 73 225 7.0 19.0 0.00 0.00 0.00 45 1006.8
20260504205310 73 207 11.0 15.0 0.00 0.00 0.00 45 1006.9
20260504204809 72 198 11.0 12.0 0.00 0.00 0.00 46 1007.0
20260504204309 72 201 8.0 15.0 0.00 0.00 0.00 46 1006.9
20260504203807 72 243 8.0 13.0 0.00 0.00 0.00 48 1007.2
20260504202806 71 236 4.0 10.0 0.00 0.00 0.00 51 1007.6
20260504202305 71 226 6.0 16.0 0.00 0.00 0.00 51 1007.8
20260504201804 71 228 4.0 11.0 0.00 0.00 0.00 50 1007.7
20260504201304 71 224 5.0 12.0 0.00 0.00 0.00 52 1007.7
20260504200803 70 214 5.0 17.0 0.00 0.00 0.00 54 1007.7
20260504200303 69 219 10.0 17.0 0.00 0.00 0.00 54 1007.8
20260504195802 68 239 9.0 10.0 0.00 0.00 0.00 56 1007.8
20260504194801 68 210 3.0 8.0 0.00 0.00 0.00 60 1007.9
20260504193759 67 190 5.0 10.0 0.00 0.00 0.00 60 1008.0
20260504193258 67 191 8.0 5.0 0.00 0.00 0.00 60 1008.1
20260504192758 67 163 3.0 8.0 0.00 0.00 0.00 60 1007.9
20260504192258 67 167 5.0 15.0 0.00 0.00 0.00 60 1008.1
20260504191757 67 211 7.0 14.0 0.00 0.00 0.00 60 1008.5
20260504191257 67 236 7.0 10.0 0.00 0.00 0.00 60 1008.3
20260504190756 66 190 6.0 14.0 0.00 0.00 0.00 60 1007.8
20260504190255 66 180 7.0 18.0 0.00 0.00 0.00 59 1008.2
20260504185754 67 194 7.0 14.0 0.00 0.00 0.00 58 1009.3
20260504185253 68 200 8.0 16.0 0.00 0.00 0.00 54 1009.0
20260504184753 69 259 10.0 14.0 0.00 0.00 0.00 52 1008.9
20260504184252 69 228 9.0 17.0 0.00 0.00 0.00 52 1008.9
20260504183752 69 271 7.0 22.0 0.00 0.00 0.00 53 1008.7
20260504183251 70 221 12.0 24.0 0.00 0.00 0.00 51 1008.7
20260504182248 70 215 17.0 24.0 0.00 0.00 0.00 49 1008.3
20260504181748 70 235 11.0 17.0 0.00 0.00 0.00 49 1008.0
20260504181247 71 224 10.0 14.0 0.00 0.00 0.00 49 1008.1
20260504180747 72 134 11.0 17.0 0.00 0.00 0.00 49 1008.0
20260504180246 72 201 7.0 20.0 0.00 0.00 0.00 50 1007.9
20260504175746 71 219 11.0 14.0 0.00 0.00 0.00 51 1007.8
20260504175246 71 139 10.0 16.0 0.00 0.00 0.00 50 1007.9
20260504174744 70 193 5.0 12.0 0.00 0.00 0.00 49 1007.7
20260504174244 71 250 9.0 20.0 0.00 0.00 0.00 50 1007.6
20260504173743 71 222 11.0 21.0 0.00 0.00 0.00 51 1007.8
20260504173243 69 207 13.0 19.0 0.00 0.00 0.00 50 1008.0
20260504172742 69 232 12.0 21.0 0.00 0.00 0.00 51 1008.0
20260504172242 69 159 8.0 17.0 0.00 0.00 0.00 52 1008.0
20260504171741 69 190 7.0 10.0 0.00 0.00 0.00 52 1008.1
20260504171241 68 195 6.0 14.0 0.00 0.00 0.00 53 1008.1
20260504170740 68 208 10.0 16.0 0.00 0.00 0.00 53 1008.3
20260504170240 68 233 7.0 14.0 0.00 0.00 0.00 53 1008.2
20260504160233 66 225 9.0 16.0 0.00 0.00 0.00 53 1008.5
20260504150723 63 217 7.0 15.0 0.00 0.00 0.00 56 1009.1
20260504150222 63 224 8.0 17.0 0.00 0.00 0.00 55 1008.8
20260504141216 61 207 6.0 13.0 0.00 0.00 0.00 59 1009.2
20260504140715 61 187 8.0 14.0 0.00 0.00 0.00 59 1009.3
20260504140215 61 193 6.0 16.0 0.00 0.00 0.00 59 1009.5
20260504130709 58 203 7.0 10.0 0.00 0.00 0.00 62 1009.3
20260504130209 58 197 5.0 7.0 0.00 0.00 0.00 62 1009.6
20260504120201 53 146 2.0 4.0 0.00 0.00 0.00 67 1009.5
20260504110654 51 118 2.0 6.0 0.00 0.00 0.00 67 1009.6
20260504110153 50 118 3.0 5.0 0.00 0.00 0.00 67 1009.7